Location: Marne
(34.0056°N, 117.9064°W)
Time: 03:20:37
(UTC+00:00)

Cosmos 1340 Rocket - Pass Details

Date: 18 January 2020
Orbit: 529 x 559 km, 81.2° (Epoch: 16 February)

Event Time Altitude Azimuth Distance (km) Brightness Sun altitude
Rises 02:29:34 0° 351° (N) 2,685 6.3 -16.9°
Reaches altitude 10° 02:31:43 10° 350° (N) 1,795 5.4 -17.4°
Maximum altitude 02:35:40 83° 262° (W) 547 2.8 -18.2°
Drops below altitude 10° 02:39:37 10° 175° (S) 1,798 5.5 -19.0°
Sets 02:41:46 0° 175° (S) 2,691 6.4 -19.4°
